ARG1835 SAVC-SABE

Flight info

Callsign ARG1835
Flight time 1h 58m
Altitude 39000
Route GATUD2G GATUD UP664 TRE UT693 BCA UW22 VALOS VALOS9R
Aircraft E190/M-SDE3GILORVW/S

Departure

Time 2026-05-03 21:49
Airport General Enrique Mosconi International Airport (SAVC)

Arrival

Time 2026-05-03 23:48
Airport Aeroparque Jorge Newbery (SABE)
Time Latitude Longitude Altitude Speed Heading
2026-05-03 21:17 -45.78951 -67.46888 195 ft 0 kts 226°
2026-05-03 21:39 -45.78940 -67.46873 195 ft 4 kts 206°
2026-05-03 21:39 -45.78920 -67.46868 195 ft 4 kts 134°
2026-05-03 21:39 -45.78914 -67.46896 195 ft 4 kts 88°
2026-05-03 21:39 -45.78915 -67.46930 198 ft 1 kts 88°
2026-05-03 21:40 -45.78915 -67.46931 198 ft 0 kts 88°
2026-05-03 21:43 -45.78915 -67.46930 198 ft 0 kts 88°
2026-05-03 21:43 -45.78914 -67.46918 195 ft 2 kts 88°
2026-05-03 21:44 -45.78914 -67.46891 195 ft 4 kts 88°
2026-05-03 21:44 -45.78912 -67.46848 195 ft 5 kts 84°
2026-05-03 21:44 -45.78893 -67.46806 200 ft 5 kts 32°
2026-05-03 21:44 -45.78852 -67.46799 200 ft 6 kts 359°
2026-05-03 21:45 -45.78803 -67.46802 202 ft 8 kts 358°
2026-05-03 21:45 -45.78754 -67.46778 200 ft 8 kts 47°
2026-05-03 21:45 -45.78746 -67.46727 200 ft 6 kts 79°
2026-05-03 21:45 -45.78737 -67.46648 203 ft 11 kts 82°
2026-05-03 21:46 -45.78720 -67.46524 205 ft 14 kts 76°
2026-05-03 21:46 -45.78699 -67.46365 195 ft 18 kts 79°
2026-05-03 21:46 -45.78673 -67.46166 198 ft 22 kts 79°
2026-05-03 21:46 -45.78642 -67.45932 198 ft 26 kts 78°
2026-05-03 21:47 -45.78605 -67.45661 201 ft 29 kts 79°
2026-05-03 21:47 -45.78567 -67.45372 202 ft 30 kts 79°
2026-05-03 21:47 -45.78534 -67.45100 204 ft 24 kts 81°
2026-05-03 21:47 -45.78507 -67.44921 195 ft 17 kts 69°
2026-05-03 21:48 -45.78429 -67.44848 209 ft 12 kts 19°
2026-05-03 21:48 -45.78370 -67.44835 198 ft 5 kts 353°
2026-05-03 21:48 -45.78324 -67.44846 193 ft 8 kts 351°
2026-05-03 21:48 -45.78301 -67.44873 194 ft 3 kts 259°
2026-05-03 21:49 -45.78326 -67.45049 200 ft 47 kts 260°
2026-05-03 21:49 -45.78429 -67.45834 194 ft 112 kts 259°
2026-05-03 21:49 -45.78613 -67.47195 301 ft 158 kts 260°
2026-05-03 21:49 -45.78891 -67.48749 1052 ft 166 kts 255°
2026-05-03 21:50 -45.79327 -67.50218 2015 ft 156 kts 248°
2026-05-03 21:50 -45.79952 -67.51675 2290 ft 192 kts 245°
2026-05-03 21:50 -45.80706 -67.53354 2965 ft 201 kts 244°
2026-05-03 21:50 -45.81497 -67.55038 3837 ft 206 kts 245°
2026-05-03 21:51 -45.82203 -67.56854 4656 ft 210 kts 250°
2026-05-03 21:51 -45.82671 -67.58797 5565 ft 206 kts 263°
2026-05-03 21:51 -45.82737 -67.60873 6146 ft 215 kts 277°
2026-05-03 21:51 -45.82146 -67.62808 7049 ft 216 kts 304°
2026-05-03 21:52 -45.80976 -67.64188 7982 ft 220 kts 317°
2026-05-03 21:52 -45.79773 -67.65537 8641 ft 221 kts 309°
2026-05-03 21:52 -45.78642 -67.67055 9294 ft 225 kts 309°
2026-05-03 21:52 -45.77433 -67.68473 10089 ft 224 kts 315°
2026-05-03 21:53 -45.76091 -67.69694 10741 ft 233 kts 322°
2026-05-03 21:53 -45.74615 -67.70742 11411 ft 244 kts 333°
2026-05-03 21:53 -45.72870 -67.71181 11945 ft 264 kts 342°
2026-05-03 21:53 -45.71041 -67.71913 12059 ft 284 kts 331°
2026-05-03 21:54 -45.69053 -67.72795 12179 ft 318 kts 345°
2026-05-03 21:54 -45.66777 -67.72480 12868 ft 341 kts 12°
2026-05-03 21:54 -45.64655 -67.70958 13723 ft 352 kts 31°
2026-05-03 21:54 -45.62821 -67.68595 14598 ft 357 kts 41°
2026-05-03 21:55 -45.61113 -67.65990 15344 ft 362 kts 42°
2026-05-03 21:55 -45.59315 -67.63476 16094 ft 362 kts 37°
2026-05-03 21:55 -45.57376 -67.61167 16844 ft 364 kts 33°
2026-05-03 21:55 -45.55359 -67.58923 17566 ft 370 kts 35°
2026-05-03 21:56 -45.53489 -67.56337 18255 ft 377 kts 39°
2026-05-03 21:56 -45.51603 -67.53788 18895 ft 377 kts 33°
2026-05-03 21:56 -45.49500 -67.51592 19549 ft 374 kts 25°
2026-05-03 21:56 -45.47260 -67.49695 20150 ft 375 kts 23°
2026-05-03 21:57 -45.44988 -67.47805 20718 ft 381 kts 24°
2026-05-03 21:57 -45.42734 -67.45777 21310 ft 385 kts 27°
2026-05-03 21:57 -45.40508 -67.43614 21889 ft 389 kts 28°
2026-05-03 21:57 -45.38276 -67.41388 22448 ft 393 kts 28°
2026-05-03 21:58 -45.36016 -67.39170 23018 ft 396 kts 28°
2026-05-03 21:58 -45.33721 -67.36972 23556 ft 398 kts 27°
2026-05-03 21:58 -45.31408 -67.34787 24088 ft 401 kts 26°
2026-05-03 21:58 -45.29077 -67.32593 24564 ft 404 kts 27°
2026-05-03 21:59 -45.26734 -67.30380 24934 ft 410 kts 27°
2026-05-03 21:59 -45.24349 -67.28114 25444 ft 413 kts 27°
2026-05-03 21:59 -45.21951 -67.25830 25917 ft 416 kts 27°
2026-05-03 21:59 -45.19538 -67.23536 26380 ft 418 kts 27°
2026-05-03 22:00 -45.17135 -67.21260 26800 ft 421 kts 27°
2026-05-03 22:00 -45.14686 -67.18948 27246 ft 424 kts 27°
2026-05-03 22:00 -45.12227 -67.16627 27653 ft 426 kts 27°
2026-05-03 22:00 -45.09753 -67.14288 28109 ft 427 kts 27°
2026-05-03 22:01 -45.07270 -67.11945 28475 ft 431 kts 26°
2026-05-03 22:01 -45.04755 -67.09581 28883 ft 433 kts 26°
2026-05-03 22:01 -45.02234 -67.07212 29203 ft 437 kts 26°
2026-05-03 22:01 -44.99719 -67.04853 29522 ft 441 kts 26°
2026-05-03 22:02 -44.97157 -67.02446 29873 ft 442 kts 26°
2026-05-03 22:02 -44.94598 -67.00044 30194 ft 444 kts 26°
2026-05-03 22:02 -44.92004 -66.97615 30470 ft 446 kts 26°
2026-05-03 22:02 -44.89410 -66.95190 30778 ft 448 kts 26°
2026-05-03 22:03 -44.86810 -66.92762 31069 ft 449 kts 26°
2026-05-03 22:03 -44.84200 -66.90328 31360 ft 451 kts 26°
2026-05-03 22:03 -44.81568 -66.87874 31618 ft 452 kts 26°
2026-05-03 22:03 -44.78973 -66.85459 31886 ft 453 kts 26°
2026-05-03 22:04 -44.76350 -66.83017 32180 ft 453 kts 26°
2026-05-03 22:04 -44.73715 -66.80569 32460 ft 453 kts 26°
2026-05-03 22:04 -44.71079 -66.78122 32800 ft 452 kts 26°
2026-05-03 22:04 -44.69342 -66.76512 33027 ft 451 kts 26°
2026-05-03 22:05 -44.66722 -66.74085 33359 ft 450 kts 26°
2026-05-03 22:05 -44.64110 -66.71669 33669 ft 448 kts 26°
2026-05-03 22:05 -44.61500 -66.69257 33881 ft 448 kts 26°
2026-05-03 22:05 -44.58878 -66.66841 34065 ft 449 kts 26°
2026-05-03 22:06 -44.56270 -66.64438 34318 ft 448 kts 26°
2026-05-03 22:06 -44.53656 -66.62029 34517 ft 449 kts 25°
2026-05-03 22:06 -44.51078 -66.59658 34694 ft 449 kts 25°
2026-05-03 22:06 -44.48451 -66.57246 34831 ft 451 kts 25°
2026-05-03 22:07 -44.45823 -66.54833 35063 ft 450 kts 25°
2026-05-03 22:07 -44.43203 -66.52429 35272 ft 450 kts 25°
2026-05-03 22:07 -44.40582 -66.50027 35475 ft 450 kts 25°
2026-05-03 22:07 -44.37965 -66.47631 35664 ft 450 kts 25°
2026-05-03 22:08 -44.35330 -66.45225 35829 ft 451 kts 25°
2026-05-03 22:08 -44.32709 -66.42833 36017 ft 451 kts 25°
2026-05-03 22:08 -44.30110 -66.40464 36203 ft 451 kts 25°
2026-05-03 22:08 -44.27479 -66.38066 36373 ft 451 kts 25°
2026-05-03 22:09 -44.24849 -66.35672 36548 ft 451 kts 25°
2026-05-03 22:09 -44.22216 -66.33279 36712 ft 451 kts 25°
2026-05-03 22:09 -44.19588 -66.30893 36885 ft 451 kts 25°
2026-05-03 22:10 -44.14741 -66.25187 37122 ft 476 kts 49°
2026-05-03 22:10 -44.12970 -66.21318 37308 ft 480 kts 54°
2026-05-03 22:10 -44.11371 -66.17215 37419 ft 484 kts 57°
2026-05-03 22:10 -44.09830 -66.13045 37552 ft 484 kts 57°
2026-05-03 22:11 -44.08243 -66.08886 37723 ft 483 kts 55°
2026-05-03 22:11 -44.06595 -66.04802 37864 ft 483 kts 54°
2026-05-03 22:11 -44.04910 -66.00768 37978 ft 484 kts 53°
2026-05-03 22:12 -44.01522 -65.92664 37955 ft 491 kts 54°
2026-05-03 22:12 -43.99666 -65.88720 37953 ft 483 kts 40°
2026-05-03 22:12 -43.97201 -65.85751 38134 ft 460 kts 24°
2026-05-03 22:12 -43.94494 -65.83463 38370 ft 451 kts 19°
2026-05-03 22:13 -43.91728 -65.81429 38432 ft 449 kts 18°
2026-05-03 22:13 -43.88979 -65.79427 38836 ft 440 kts 19°
2026-05-03 22:13 -43.86276 -65.77362 38668 ft 451 kts 20°
2026-05-03 22:13 -43.83524 -65.75136 38479 ft 460 kts 21°
2026-05-03 22:14 -43.80831 -65.72877 38664 ft 458 kts 22°
2026-05-03 22:14 -43.78071 -65.70593 38532 ft 464 kts 21°
2026-05-03 22:14 -43.75286 -65.68335 38604 ft 464 kts 21°
2026-05-03 22:15 -43.69654 -65.63845 38560 ft 470 kts 21°
2026-05-03 22:15 -43.63964 -65.59287 38582 ft 475 kts 21°
2026-05-03 22:16 -43.58205 -65.54668 38586 ft 479 kts 21°
2026-05-03 22:16 -43.52420 -65.50045 38586 ft 484 kts 21°
2026-05-03 22:17 -43.46581 -65.45387 38579 ft 484 kts 21°
2026-05-03 22:17 -43.40809 -65.40790 38587 ft 480 kts 21°
2026-05-03 22:18 -43.35025 -65.36207 38583 ft 480 kts 21°
2026-05-03 22:18 -43.29226 -65.31619 38582 ft 480 kts 21°
2026-05-03 22:19 -43.23466 -65.27067 38570 ft 480 kts 21°
2026-05-03 22:19 -43.17669 -65.22524 38591 ft 478 kts 19°
2026-05-03 22:20 -43.11825 -65.18225 38577 ft 477 kts 19°
2026-05-03 22:20 -43.05971 -65.13917 38584 ft 477 kts 19°
2026-05-03 22:21 -43.00160 -65.09582 38583 ft 478 kts 19°
2026-05-03 22:21 -42.94303 -65.05236 38596 ft 477 kts 19°
2026-05-03 22:22 -42.88478 -65.00934 38588 ft 476 kts 19°
2026-05-03 22:22 -42.82680 -64.96659 38590 ft 476 kts 19°
2026-05-03 22:23 -42.76845 -64.92363 38585 ft 476 kts 19°
2026-05-03 22:23 -42.71012 -64.88078 38596 ft 476 kts 19°
2026-05-03 22:24 -42.65186 -64.83809 38592 ft 476 kts 19°
2026-05-03 22:24 -42.59389 -64.79571 38591 ft 476 kts 19°
2026-05-03 22:25 -42.53549 -64.75308 38591 ft 476 kts 19°
2026-05-03 22:25 -42.47722 -64.71063 38603 ft 474 kts 19°
2026-05-03 22:26 -42.41901 -64.66836 38600 ft 475 kts 19°
2026-05-03 22:26 -42.36109 -64.62636 38602 ft 475 kts 19°
2026-05-03 22:27 -42.30270 -64.58410 38601 ft 476 kts 19°
2026-05-03 22:27 -42.24421 -64.54186 38624 ft 475 kts 19°
2026-05-03 22:28 -42.18616 -64.50002 38608 ft 476 kts 19°
2026-05-03 22:28 -42.12758 -64.45793 38612 ft 476 kts 19°
2026-05-03 22:29 -42.06900 -64.41589 38618 ft 477 kts 19°
2026-05-03 22:29 -42.01089 -64.37427 38635 ft 475 kts 19°
2026-05-03 22:30 -41.95265 -64.33257 38653 ft 470 kts 19°
2026-05-03 22:30 -41.89471 -64.29132 38633 ft 470 kts 19°
2026-05-03 22:31 -41.83718 -64.25044 38629 ft 470 kts 19°
2026-05-03 22:31 -41.77939 -64.20937 38643 ft 468 kts 19°
2026-05-03 22:32 -41.72180 -64.16854 38639 ft 468 kts 19°
2026-05-03 22:32 -41.66417 -64.12780 38637 ft 468 kts 19°
2026-05-03 22:33 -41.60650 -64.08713 38642 ft 472 kts 19°
2026-05-03 22:33 -41.54843 -64.04627 38634 ft 477 kts 19°
2026-05-03 22:34 -41.48943 -64.00482 38642 ft 480 kts 19°
2026-05-03 22:34 -41.43040 -63.96330 38650 ft 478 kts 19°
2026-05-03 22:35 -41.37159 -63.92213 38654 ft 476 kts 19°
2026-05-03 22:35 -41.31293 -63.88115 38667 ft 474 kts 19°
2026-05-03 22:36 -41.25485 -63.84068 38666 ft 473 kts 18°
2026-05-03 22:36 -41.19640 -63.80005 38670 ft 473 kts 18°
2026-05-03 22:37 -41.13798 -63.75949 38676 ft 475 kts 18°
2026-05-03 22:37 -41.07937 -63.71892 38692 ft 480 kts 19°
2026-05-03 22:38 -41.01979 -63.67769 38675 ft 483 kts 19°
2026-05-03 22:38 -40.96021 -63.63651 38673 ft 481 kts 18°
2026-05-03 22:39 -40.90122 -63.59590 38691 ft 479 kts 18°
2026-05-03 22:39 -40.84215 -63.55529 38693 ft 477 kts 18°
2026-05-03 22:40 -40.78327 -63.51490 38690 ft 476 kts 18°
2026-05-03 22:40 -40.72459 -63.47476 38701 ft 474 kts 18°
2026-05-03 22:41 -40.66598 -63.43475 38699 ft 476 kts 18°
2026-05-03 22:41 -40.60708 -63.39465 38727 ft 481 kts 18°
2026-05-03 22:42 -40.54731 -63.35392 38708 ft 482 kts 18°
2026-05-03 22:42 -40.48769 -63.31340 38719 ft 481 kts 18°
2026-05-03 22:43 -40.42815 -63.27307 38718 ft 480 kts 18°
2026-05-03 22:43 -40.36930 -63.23326 38733 ft 477 kts 18°
2026-05-03 22:44 -40.31032 -63.19342 38727 ft 476 kts 18°
2026-05-03 22:44 -40.25142 -63.15378 38733 ft 475 kts 18°
2026-05-03 22:45 -40.19237 -63.11412 38746 ft 480 kts 18°
2026-05-03 22:45 -40.13256 -63.07400 38764 ft 484 kts 18°
2026-05-03 22:46 -40.07292 -63.03399 38750 ft 484 kts 18°
2026-05-03 22:46 -40.01308 -62.99403 38751 ft 482 kts 18°
2026-05-03 22:47 -39.95348 -62.95424 38760 ft 480 kts 18°
2026-05-03 22:47 -39.89408 -62.91467 38761 ft 478 kts 18°
2026-05-03 22:48 -39.83490 -62.87537 38773 ft 476 kts 18°
2026-05-03 22:48 -39.77598 -62.83630 38773 ft 475 kts 18°
2026-05-03 22:49 -39.71671 -62.79717 38789 ft 481 kts 18°
2026-05-03 22:49 -39.65655 -62.75747 38771 ft 486 kts 18°
2026-05-03 22:50 -39.59663 -62.71788 38784 ft 486 kts 18°
2026-05-03 22:50 -39.53628 -62.67816 38784 ft 485 kts 18°
2026-05-03 22:51 -39.47614 -62.63864 38801 ft 483 kts 18°
2026-05-03 22:51 -39.41670 -62.59967 38817 ft 480 kts 17°
2026-05-03 22:52 -39.35696 -62.56063 38806 ft 479 kts 17°
2026-05-03 22:52 -39.29743 -62.52177 38793 ft 478 kts 18°
2026-05-03 22:53 -39.24804 -62.48956 38821 ft 480 kts 18°
2026-05-03 22:53 -39.17803 -62.44410 38815 ft 486 kts 18°
2026-05-03 22:54 -39.12726 -62.41103 38807 ft 487 kts 18°
2026-05-03 22:54 -39.06720 -62.37208 38816 ft 485 kts 18°
2026-05-03 22:55 -39.00694 -62.33318 38833 ft 483 kts 18°
2026-05-03 22:55 -38.94694 -62.29446 38836 ft 481 kts 17°
2026-05-03 22:56 -38.88728 -62.25598 38863 ft 479 kts 17°
2026-05-03 22:56 -38.82740 -62.21747 38885 ft 484 kts 17°
2026-05-03 22:57 -38.76672 -62.17854 38865 ft 488 kts 18°
2026-05-03 22:57 -38.70731 -62.13749 38889 ft 494 kts 24°
2026-05-03 22:58 -38.65039 -62.08722 38838 ft 498 kts 28°
2026-05-03 22:58 -38.59418 -62.03548 38865 ft 495 kts 27°
2026-05-03 22:59 -38.53771 -61.98540 38859 ft 492 kts 26°
2026-05-03 22:59 -38.48176 -61.93604 38871 ft 491 kts 26°
2026-05-03 23:00 -38.42493 -61.88576 38745 ft 501 kts 30°
2026-05-03 23:00 -38.39662 -61.86053 39095 ft 495 kts 30°
2026-05-03 23:00 -38.36781 -61.83500 38757 ft 508 kts 30°
2026-05-03 23:00 -38.33961 -61.81006 39087 ft 499 kts 30°
2026-05-03 23:01 -38.31072 -61.78458 38811 ft 510 kts 30°
2026-05-03 23:01 -38.28147 -61.75886 38938 ft 509 kts 30°
2026-05-03 23:01 -38.25219 -61.73308 38879 ft 515 kts 30°
2026-05-03 23:02 -38.12711 -61.62314 38880 ft 530 kts 30°
2026-05-03 23:03 -38.06636 -61.56995 38906 ft 536 kts 30°
2026-05-03 23:03 -38.00470 -61.51603 38904 ft 537 kts 30°
2026-05-03 23:04 -37.94322 -61.46230 38910 ft 537 kts 30°
2026-05-03 23:04 -37.88215 -61.40798 38948 ft 533 kts 31°
2026-05-03 23:05 -37.82151 -61.35410 38937 ft 531 kts 30°
2026-05-03 23:05 -37.76136 -61.30111 38925 ft 529 kts 30°
2026-05-03 23:06 -37.70095 -61.24792 38932 ft 527 kts 30°
2026-05-03 23:06 -37.64075 -61.19497 38936 ft 527 kts 30°
2026-05-03 23:07 -37.58037 -61.14202 38952 ft 532 kts 30°
2026-05-03 23:07 -37.51946 -61.08868 38945 ft 532 kts 30°
2026-05-03 23:08 -37.45889 -61.03572 38949 ft 532 kts 30°
2026-05-03 23:08 -37.39822 -60.98281 38947 ft 531 kts 29°
2026-05-03 23:09 -37.33754 -60.93000 38953 ft 529 kts 29°
2026-05-03 23:09 -37.27708 -60.87748 38956 ft 527 kts 29°
2026-05-03 23:10 -37.21672 -60.82516 38961 ft 526 kts 29°
2026-05-03 23:10 -37.15646 -60.77301 38960 ft 524 kts 29°
2026-05-03 23:11 -37.09624 -60.72103 38960 ft 528 kts 29°
2026-05-03 23:11 -37.03594 -60.66910 38945 ft 531 kts 29°
2026-05-03 23:12 -36.97516 -60.61677 38966 ft 529 kts 28°
2026-05-03 23:12 -36.91480 -60.56496 38970 ft 528 kts 28°
2026-05-03 23:13 -36.86404 -60.52147 38968 ft 527 kts 28°
2026-05-03 23:13 -36.80401 -60.47011 38940 ft 525 kts 28°
2026-05-03 23:14 -36.74381 -60.41872 38967 ft 523 kts 28°
2026-05-03 23:14 -36.68377 -60.36763 38986 ft 521 kts 28°
2026-05-03 23:15 -36.62425 -60.31714 38979 ft 520 kts 28°
2026-05-03 23:15 -36.56461 -60.26659 38987 ft 519 kts 28°
2026-05-03 23:16 -36.50456 -60.21581 39017 ft 523 kts 28°
2026-05-03 23:16 -36.44398 -60.16496 38989 ft 525 kts 28°
2026-05-03 23:17 -36.38333 -60.11423 38992 ft 525 kts 28°
2026-05-03 23:17 -36.32283 -60.06366 38993 ft 523 kts 28°
2026-05-03 23:18 -36.26247 -60.01327 38999 ft 521 kts 27°
2026-05-03 23:18 -36.20256 -59.96339 39001 ft 519 kts 27°
2026-05-03 23:19 -36.14298 -59.91388 39002 ft 517 kts 27°
2026-05-03 23:19 -36.08327 -59.86434 39004 ft 516 kts 27°
2026-05-03 23:20 -36.02361 -59.81495 39010 ft 517 kts 27°
2026-05-03 23:20 -35.96336 -59.76522 38993 ft 523 kts 27°
2026-05-03 23:21 -35.90344 -59.71571 39003 ft 521 kts 27°
2026-05-03 23:21 -35.84318 -59.66608 39012 ft 520 kts 27°
2026-05-03 23:22 -35.75300 -59.59200 39018 ft 517 kts 27°
2026-05-03 23:22 -35.69308 -59.54289 39021 ft 516 kts 27°
2026-05-03 23:23 -35.63406 -59.49458 38421 ft 511 kts 27°
2026-05-03 23:23 -35.60504 -59.47080 38188 ft 496 kts 27°
2026-05-03 23:23 -35.57725 -59.45140 37418 ft 494 kts 23°
2026-05-03 23:24 -35.54829 -59.42884 36863 ft 493 kts 29°
2026-05-03 23:24 -35.52045 -59.40419 36115 ft 494 kts 31°
2026-05-03 23:24 -35.49320 -59.37965 35560 ft 489 kts 30°
2026-05-03 23:24 -35.46590 -59.35450 34819 ft 493 kts 39°
2026-05-03 23:25 -35.44450 -59.32192 34251 ft 493 kts 60°
2026-05-03 23:25 -35.42999 -59.28391 33519 ft 492 kts 72°
2026-05-03 23:25 -35.42000 -59.24412 32974 ft 484 kts 77°
2026-05-03 23:25 -35.41083 -59.20436 32259 ft 484 kts 75°
2026-05-03 23:26 -35.40033 -59.16574 31678 ft 483 kts 70°
2026-05-03 23:26 -35.38794 -59.12727 31026 ft 488 kts 67°
2026-05-03 23:26 -35.37452 -59.08879 30345 ft 494 kts 66°
2026-05-03 23:26 -35.36109 -59.04988 29697 ft 495 kts 67°
2026-05-03 23:27 -35.34825 -59.01098 29104 ft 487 kts 67°
2026-05-03 23:27 -35.33599 -58.97269 28369 ft 480 kts 67°
2026-05-03 23:27 -35.32399 -58.93490 27796 ft 471 kts 67°
2026-05-03 23:27 -35.31207 -58.89780 27146 ft 465 kts 66°
2026-05-03 23:28 -35.30013 -58.86124 26529 ft 459 kts 66°
2026-05-03 23:28 -35.28838 -58.82558 25970 ft 454 kts 66°
2026-05-03 23:28 -35.27650 -58.78963 25313 ft 454 kts 66°
2026-05-03 23:28 -35.26470 -58.75382 24757 ft 451 kts 65°
2026-05-03 23:29 -35.25303 -58.71836 24146 ft 448 kts 65°
2026-05-03 23:29 -35.24136 -58.68288 23514 ft 445 kts 65°
2026-05-03 23:29 -35.22983 -58.64800 22968 ft 436 kts 65°
2026-05-03 23:29 -35.21852 -58.61392 22355 ft 432 kts 65°
2026-05-03 23:30 -35.20724 -58.58009 21840 ft 426 kts 65°
2026-05-03 23:30 -35.19605 -58.54661 21263 ft 425 kts 65°
2026-05-03 23:30 -35.18506 -58.51374 20692 ft 422 kts 65°
2026-05-03 23:30 -35.17386 -58.48024 20158 ft 417 kts 65°
2026-05-03 23:31 -35.16305 -58.44800 19569 ft 414 kts 66°
2026-05-03 23:31 -35.15219 -58.41564 19088 ft 407 kts 66°
2026-05-03 23:31 -35.14141 -58.38359 18497 ft 404 kts 66°
2026-05-03 23:31 -35.13086 -58.35225 17957 ft 398 kts 66°
2026-05-03 23:32 -35.12034 -58.32112 17478 ft 393 kts 66°
2026-05-03 23:32 -35.10989 -58.29029 16932 ft 392 kts 66°
2026-05-03 23:32 -35.09946 -58.25958 16408 ft 390 kts 66°
2026-05-03 23:32 -35.08922 -58.22943 15941 ft 386 kts 66°
2026-05-03 23:33 -35.07896 -58.19929 15378 ft 384 kts 66°
2026-05-03 23:33 -35.06871 -58.16925 14901 ft 378 kts 66°
2026-05-03 23:33 -35.05862 -58.13972 14385 ft 374 kts 66°
2026-05-03 23:33 -35.04865 -58.11053 13898 ft 369 kts 66°
2026-05-03 23:34 -35.03885 -58.08190 13425 ft 363 kts 66°
2026-05-03 23:34 -35.02918 -58.05370 12918 ft 356 kts 66°
2026-05-03 23:34 -35.01990 -58.02668 12492 ft 341 kts 65°
2026-05-03 23:34 -35.01081 -58.00028 12056 ft 334 kts 65°
2026-05-03 23:35 -35.00183 -57.97427 11574 ft 332 kts 65°
2026-05-03 23:35 -34.99278 -57.94820 11020 ft 332 kts 63°
2026-05-03 23:35 -34.97971 -57.92584 10638 ft 319 kts 36°
2026-05-03 23:35 -34.96067 -57.91409 10279 ft 301 kts
2026-05-03 23:36 -34.94064 -57.91547 10001 ft 280 kts 335°
2026-05-03 23:36 -34.92530 -57.92859 9701 ft 269 kts 307°
2026-05-03 23:36 -34.91545 -57.94745 9310 ft 270 kts 297°
2026-05-03 23:36 -34.90544 -57.96682 9018 ft 267 kts 306°
2026-05-03 23:37 -34.89261 -57.98289 8628 ft 266 kts 319°
2026-05-03 23:37 -34.87738 -57.99552 8297 ft 260 kts 326°
2026-05-03 23:37 -34.86216 -58.00642 7906 ft 246 kts 326°
2026-05-03 23:37 -34.84831 -58.01731 7622 ft 229 kts 321°
2026-05-03 23:38 -34.83601 -58.02869 7340 ft 215 kts 318°
2026-05-03 23:38 -34.82493 -58.04002 7039 ft 205 kts 317°
2026-05-03 23:38 -34.81419 -58.05109 6826 ft 203 kts 318°
2026-05-03 23:38 -34.80299 -58.06206 6527 ft 209 kts 320°
2026-05-03 23:39 -34.79145 -58.07277 6220 ft 206 kts 321°
2026-05-03 23:39 -34.78026 -58.08291 5978 ft 195 kts 321°
2026-05-03 23:39 -34.76968 -58.09266 5695 ft 186 kts 320°
2026-05-03 23:39 -34.75971 -58.10208 5514 ft 179 kts 320°
2026-05-03 23:40 -34.74992 -58.11145 5250 ft 180 kts 320°
2026-05-03 23:40 -34.74005 -58.12083 5000 ft 181 kts 321°
2026-05-03 23:40 -34.73027 -58.13002 4772 ft 179 kts 321°
2026-05-03 23:40 -34.72035 -58.13934 4500 ft 178 kts 321°
2026-05-03 23:41 -34.71066 -58.14843 4334 ft 173 kts 322°
2026-05-03 23:41 -34.70113 -58.15748 4086 ft 173 kts 319°
2026-05-03 23:41 -34.69345 -58.16794 4070 ft 158 kts 304°
2026-05-03 23:41 -34.68847 -58.17937 3999 ft 154 kts 296°
2026-05-03 23:42 -34.68394 -58.19164 3704 ft 168 kts 298°
2026-05-03 23:42 -34.67790 -58.20490 3295 ft 174 kts 306°
2026-05-03 23:42 -34.67157 -58.21592 3441 ft 160 kts 309°
2026-05-03 23:42 -34.66431 -58.22754 2774 ft 184 kts 311°
2026-05-03 23:43 -34.65716 -58.23939 2730 ft 165 kts 309°
2026-05-03 23:43 -34.65065 -58.25097 2411 ft 168 kts 308°
2026-05-03 23:43 -34.64436 -58.26258 2212 ft 163 kts 308°
2026-05-03 23:43 -34.63839 -58.27379 2094 ft 153 kts 308°
2026-05-03 23:44 -34.63269 -58.28433 2006 ft 145 kts 310°
2026-05-03 23:44 -34.62698 -58.29453 1967 ft 148 kts 311°
2026-05-03 23:44 -34.62109 -58.30482 1997 ft 150 kts 310°
2026-05-03 23:44 -34.61519 -58.31522 1885 ft 150 kts 310°
2026-05-03 23:45 -34.60931 -58.32576 1725 ft 151 kts 310°
2026-05-03 23:45 -34.60336 -58.33645 1468 ft 153 kts 309°
2026-05-03 23:45 -34.59772 -58.34671 1258 ft 137 kts 310°
2026-05-03 23:45 -34.59281 -58.35580 1075 ft 127 kts 310°
2026-05-03 23:46 -34.58773 -58.36482 932 ft 132 kts 310°
2026-05-03 23:46 -34.58245 -58.37410 726 ft 132 kts 307°
2026-05-03 23:46 -34.57745 -58.38331 522 ft 129 kts 308°
2026-05-03 23:46 -34.57240 -58.39229 337 ft 132 kts 311°
2026-05-03 23:47 -34.56744 -58.40130 183 ft 125 kts 308°
2026-05-03 23:47 -34.56260 -58.40980 31 ft 117 kts 307°
2026-05-03 23:47 -34.55878 -58.41661 22 ft 76 kts 304°
2026-05-03 23:47 -34.55650 -58.42067 27 ft 50 kts 306°
2026-05-03 23:48 -34.55491 -58.42354 27 ft 29 kts 303°
2026-05-03 23:48 -34.55397 -58.42501 24 ft 17 kts 345°
2026-05-03 23:48 -34.55366 -58.42415 24 ft 10 kts 98°
2026-05-03 23:48 -34.55395 -58.42333 26 ft 11 kts 127°
2026-05-03 23:49 -34.55444 -58.42255 25 ft 12 kts 126°
2026-05-03 23:49 -34.55498 -58.42166 25 ft 14 kts 127°
2026-05-03 23:49 -34.55561 -58.42072 24 ft 15 kts 128°
2026-05-03 23:49 -34.55621 -58.41960 26 ft 16 kts 123°
2026-05-03 23:50 -34.55686 -58.41848 24 ft 16 kts 125°
2026-05-03 23:50 -34.55725 -58.41773 26 ft 14 kts 121°
2026-05-03 23:50 -34.55781 -58.41640 26 ft 0 kts 113°
2026-05-03 23:50 -34.55786 -58.41627 24 ft 7 kts 118°
2026-05-03 23:51 -34.55826 -58.41535 26 ft 17 kts 117°
2026-05-03 23:51 -34.55885 -58.41403 26 ft 18 kts 119°
2026-05-03 23:51 -34.55897 -58.41310 24 ft 5 kts 52°
2026-05-03 23:51 -34.55864 -58.41278 24 ft 7 kts 46°
2026-05-03 23:52 -34.55848 -58.41246 28 ft 4 kts 58°
2026-05-03 23:52 -34.55833 -58.41226 24 ft 0 kts 41°
2026-05-03 23:52 -34.55827 -58.41220 24 ft 0 kts 40°
2026-05-03 23:52 -34.55824 -58.41217 24 ft 1 kts 40°
2026-05-03 23:53 -34.55821 -58.41214 24 ft 0 kts 39°